軌道要素
Epoch 2021 Jan. 26.0 TT = JDT 2459240.5
T 2021 Feb. 11.80879 TT Rudenko
q 2.8494218 (2000.0) P Q
n 0.11449428 Peri. 196.87496 +0.99293515 -0.07275178
a 4.2002988 Node 166.23952 +0.07441777 +0.99712323
e 0.3216145 Incl. 23.20900 -0.09242173 +0.02127091
P 8.61
From 125 observations 2020 May 22-Dec. 13, mean residual 0".6.
|